sat.trackr.live / text

‹ back to catalog

UNKNOWN

NORAD 85151

UNKNOWN UNKNOWN UNKNOWN

§ Identity

Operator
Country
Launch date
Launch site
Launch vehicle
Mass (kg)
RCS (m²)

External: N2YO · Heavens-Above

§ Orbital elements

Epoch: 2026-05-23T14:34:03.573120Z

Period
96.90 min
Inclination
98.3946°
Eccentricity
0.0008104
Mean motion
14.86015910 rev/d
Perigee alt
604.7 km
Apogee alt
616.1 km
Semi-major
6,988.5 km
B*
1.6588e-3
RAAN
20.7256°
Arg perigee
358.6415°
Mean anomaly
1.4775°
Rev number
50,351

§ Raw data

UNKNOWN1 85151U          26143.60698580  .00014475  00000+0  16588-2 0  99982 85151  98.3946  20.7256 0008104 358.6415   1.4775 14.86015910503511

JSON: /api/v1/satellites/85151 · /tle

For live sub-satellite position, see the globe view (requires WebGL).

§ Visibility from observer

Set your observer location to see the next 7 days of passes ≥ 10°. The values pass through the URL so the page stays shareable.

No JS? Fill the form by hand. The geolocation button needs JavaScript.